Location: Boiro
(42.6475°N, 8.8834°W)
Time: 00:49:20
(UTC+01:00)

Tiros 1 - Pass Details

Date: 30 November 2021
Orbit: 629 x 664 km, 48.4° (Epoch: 26 January)

Event Time Altitude Azimuth Distance (km) Brightness Sun altitude
Rises 21:23:47 0° 233° (SW) 2,917 11.1 -36.2°
Reaches altitude 10° 21:26:06 10° 230° (SW) 2,016 10.1 -36.7°
Enters shadow 21:26:16 11° 230° (SW) 1,952 10.0 -36.7°
